Regional Weather Roundup
Issued by NWS

Home | Current Version | Previous Version | Graphics & Text | Print | Product List | Glossary On
Versions: 1 2 3 4 5 6 7 8 9 10 11 12 13 14 15 16 17 18 19 20 21 22 23 24 25 26 27 28 29 30 31 32 33 34 35 36 37 38 39 40 41 42 43 44 45 46 47 48 49 50
627
ASUS43 KDTX 250401
RWRMI
MICHIGAN HOURLY REGIONAL WEATHER ROUNDUP
NATIONAL WEATHER SERVICE DETROIT/PONTIAC MI
1200 AM EDT MON JUL 25 2016

NOTE: "FAIR" INDICATES FEW OR NO CLOUDS BELOW 12,000 FEET WITH NO
SIGNIFICANT WEATHER AND/OR OBSTRUCTION TO VISIBILITY.

MIZ047>049-052>055-059>063-066>070-074>076-081>083-250500-
SOUTHEAST LOWER MICHIGAN

CITY           SKY/WX    TMP DP  RH WIND       PRES   REMARKS
ADRIAN         CLOUDY    77  75  93 SW7       29.91F
ALMA           CLOUDY    81  79  92 S7        29.83F HX  90
ANN ARBOR      CLOUDY    76  74  93 S5        29.89F
BAD AXE        CLOUDY    78  73  83 S9        29.84F
CARO           CLOUDY    80  74  84 S8        29.83F
DETROIT CITY   PTCLDY    79  73  82 S8        29.88F
DETROIT        PTCLDY    78  72  81 S7        29.89F
FLINT          MOCLDY    83  75  77 S10       29.86F HX  90
GROSSE ILE     PTCLDY    78  75  91 S9        29.89F
HOWELL         CLOUDY    79  75  89 S6        29.88F

CITY           SKY/WX    TMP DP  RH WIND       PRES   REMARKS
JACKSON        CLOUDY    80  77  90 SW8       29.90F
LAMBERTVILLE   CLEAR     79  74  84 S6        29.91F
LANSING        CLOUDY    82  75  79 SW12      29.87F
LAPEER         FAIR      79  73  81 S9        29.86F
MASON          CLOUDY    80  75  84 S3        29.89S
MONROE         CLEAR     78  75  90 S5        29.89F
MT. CLEMENS    CLOUDY    77  72  83 S8        29.86F
PONTIAC        MOCLDY    77  72  84 S8        29.88F
PORT HOPE        N/A     79  74  84 CALM      29.82S
PORT HURON     PTCLDY    75  70  83 S8        29.88F
TRI CITIES     CLOUDY    81  77  88 S9        29.82F
MIDLAND        MOCLDY    82  76  82 S7        29.80F
TROY           CLOUDY    79  71  76 S6        29.90F
SAGINAW HB     CLOUDY    81  75  83 S12       29.81F
$$
MIZ043>046-050>051-056>058-064>065-071>073-077>080-250500-
SOUTHWEST LOWER MICHIGAN

CITY           SKY/WX    TMP DP  RH WIND       PRES   REMARKS
BATTLE CREEK   CLOUDY    78  77  96 S9        29.89F
BENTON HARBOR  CLOUDY    78  63  59 SW5       29.89R
BIG RAPIDS     CLOUDY    75  75 100 CALM      29.85F
COLDWATER      CLOUDY    81  77  88 SW6       29.91S
FREMONT        FAIR      77  77 100 NW3       29.85S
HOLLAND        CLOUDY    78  67  68 SW10G21   29.87F
GRAND RAPIDS   CLOUDY    83  67  58 W13       29.86S
IONIA          FAIR      82  74  78 SW13      29.85S
KALAMAZOO      LGT RAIN  82  76  81 SW6       29.89S
LUDINGTON      CLOUDY    74  70  85 NW5       29.83F
MARSHALL       CLOUDY    82  78  89 S6        29.89S HX  90
MOUNT PLEASANT CLOUDY    81  78  90 W3        29.82F HX  90
MUSKEGON       CLOUDY    76  74  93 W5        29.85S
SOUTH HAVEN    CLOUDY    81  59  47 SW7       29.88R
$$
MIZ016>042-250500-
NORTHERN LOWER MICHIGAN

CITY           SKY/WX    TMP DP  RH WIND       PRES   REMARKS
ALPENA         MOCLDY    77  71  82 SW5       29.79F
BEAVER ISLAND  FOG       69  69  99 CALM      29.81S VSB 1
BELLAIRE       CLEAR     76  74  93 CALM      29.80F
CADILLAC       CLOUDY    73  72  95 SW3       29.86F FOG
CHARLEVOIX     MOCLDY    76  73  92 W12G17    29.83R
FRANKFORT      PTCLDY    72  69  92 CALM      29.83R FOG
GAYLORD        MOCLDY    77  73  87 W8        29.83F
GRAYLING       MOCLDY    78  76  92 W7        29.84S
HARBOR SPRINGS CLOUDY    73  72  96 W16G22    29.80S FOG
HOUGHTON LAKE  PTCLDY    79  76  90 W9        29.84S
MANISTEE       CLOUDY    72  71  97 CALM      29.83S FOG
OSCODA         CLOUDY    76  74  93 S13       29.80S
PELLSTON       LGT RAIN  74  71  91 W12       29.81S FOG
ROGERS CITY    CLOUDY    77  71  81 W7        29.79F
TRAVERSE CITY  CLEAR     77  74  90 SW5       29.79F
$$
MIZ007>008-015-250500-
EASTERN UPPER MICHIGAN

CITY           SKY/WX    TMP DP  RH WIND       PRES   REMARKS
KINROSS        CLOUDY    70  70 100 W5        29.80F FOG
MACKINAC ISLAN FOG       70  70 100 W6        29.80S VSB 3/4
NEWBERRY       CLOUDY    67  67  97 CALM      29.81S
S. S. MARIE    CLOUDY    72  70  93 W5        29.78F FOG
$$
MIZ004>006-011>014-085-250500-
CENTRAL UPPER MICHIGAN

CITY           SKY/WX    TMP DP  RH WIND       PRES   REMARKS
MANISTIQUE     PTCLDY    71  68  89 N8        29.81S
ESCANABA         N/A    N/A N/A N/A MISG        N/A
MENOMINEE        N/A     73  67  81 MISG        N/A
SAWYER-GWINN   MOCLDY    70  61  71 CALM      29.85S
$$
MIZ001>003-009>011-084-250500-
WESTERN UPPER MICHIGAN

CITY           SKY/WX    TMP DP  RH WIND       PRES   REMARKS
IRON MOUNTAIN  CLOUDY    71  61  70 NW3       29.85R
HOUGHTON       CLEAR     71  58  63 W13       29.80F
COPPER HARBOR    N/A     73  57  57 W6        29.77S
IRONWOOD       CLEAR     66  63  88 W8        29.86S
$$

ABBREVIATIONS USED IN REMARKS
   TC - TEMPERATURE IN CELSIUS
  WCI - WIND CHILL INDEX
   HX - HEAT INDEX
  VSB - VISIBILITY





USA.gov is the U.S. government's official web portal to all federal, state and local government web resources and services.